Piney Island, NC

4:02 AM EDT on March 25, 2017 (GMT -0400)
Piney Island

Weather History for KNBT - February, 2014

Change the Weather History Date:

Wednesday, February 5, 2014

  Actual Average (KMRH) Record (KMRH)
Temperature  
Mean Temperature 58 °F -  
Max Temperature 71 °F 55 °F 69 °F (1991)
Min Temperature 45 °F 34 °F 17 °F (1980)
Degree Days  
Heating Degree Days 7    
Growing Degree Days 8 (Base 50)    
Moisture  
Dew Point 58 °F    
Average Humidity 93    
Maximum Humidity 100    
Minimum Humidity 80    
Precipitation  
Precipitation 0.00 in - - ()
Sea Level Pressure  
Sea Level Pressure 29.90 in    
Wind  
Wind Speed 11 mph (WSW)    
Max Wind Speed 28 mph    
Max Gust Speed 41 mph    
Averages and records for this station are not official NWS values.
T = Trace of Precipitation, MM = Missing Value Source: NWS Daily Summary

Daily Weather History Graph

Daily Weather History Graph

Search for Another Location

Airport or City:

Trip Planner

Search our weather history database for the weather conditions in past years. The results will help you decide how hot, cold, wet, or windy it might be!

Date:

Astronomy

Feb. 05, 2014 Rise Set
Actual Time 7:01 AM EST 5:38 PM EST
Civil Twilight 6:35 AM EST 6:05 PM EST
Nautical Twilight 6:05 AM EST 6:35 PM EST
Astronomical Twilight 5:35 AM EST 7:04 PM EST
Moon 10:31 AM EST (2/5) No Moon Set
Length of Visible Light 11h 29m
Length of Day
10h 37m
Waxing Crescent, 39% of the Moon is Illuminated
Feb 5
Waxing Crescent
Feb 6
First Quarter
Feb 14
Full
Feb 22
Last Quarter
Mar 1
New

Hourly Weather History & Observations

Time (EST) Temp. Windchill Dew Point Humidity Pressure Visibility Wind Dir Wind Speed Gust Speed Precip Events Conditions
12:56 AM 45.0 °F 41.2 °F 44.1 °F 97% 30.04 in - North 6.9 mph - N/A Rain Light Rain
1:56 AM 45.0 °F 42.6 °F 43.0 °F 93% 30.04 in - WNW 4.6 mph - N/A Rain Light Rain
2:56 AM 46.0 °F - 45.0 °F 96% 29.99 in - Calm Calm - N/A   Overcast
3:56 AM 46.0 °F 43.1 °F 45.0 °F 96% 29.99 in - West 5.8 mph - N/A   Overcast
4:56 AM 46.9 °F - 46.0 °F 97% 29.97 in - Calm Calm - N/A   Overcast
5:56 AM 50.0 °F - 50.0 °F 100% 29.97 in - WSW 3.5 mph - N/A   Overcast
6:56 AM 48.9 °F - 48.0 °F 97% 29.96 in - Calm Calm - N/A   Overcast
7:56 AM 50.0 °F - 48.9 °F 96% 29.94 in - SE 3.5 mph - N/A   Overcast
8:56 AM 62.1 °F - 61.0 °F 96% 29.96 in - SSW 10.4 mph - N/A   Overcast
9:08 AM 63.0 °F - 62.1 °F 97% 29.94 in - SW 12.7 mph - N/A   Mostly Cloudy
9:26 AM 64.0 °F - 64.0 °F 100% 29.94 in - SSW 13.8 mph - N/A   Mostly Cloudy
9:56 AM 66.0 °F - 64.9 °F 96% 29.94 in - SSW 18.4 mph 28.8 mph N/A   Mostly Cloudy
10:15 AM 66.9 °F - 66.0 °F 97% 29.92 in - SW 19.6 mph 28.8 mph N/A Rain Light Rain
10:33 AM 68.0 °F - 66.0 °F 93% 29.91 in - SSW 16.1 mph 26.5 mph N/A Rain Light Rain
10:56 AM 69.1 °F - 68.0 °F 96% 29.91 in - SW 20.7 mph 28.8 mph N/A   Overcast
11:21 AM 70.0 °F - 68.0 °F 93% 29.88 in - SW 20.7 mph 28.8 mph N/A   Overcast
11:56 AM 70.0 °F - 66.9 °F 90% 29.87 in - SW 24.2 mph 39.1 mph N/A   Overcast
12:14 PM 71.1 °F - 66.9 °F 87% 29.85 in - SW 26.5 mph 38.0 mph N/A   Overcast
12:56 PM 71.1 °F - 66.9 °F 87% 29.83 in - SW 23.0 mph 40.3 mph N/A   Overcast
1:35 PM 69.1 °F - 66.9 °F 93% 29.80 in - SW 24.2 mph 35.7 mph N/A Rain Light Rain
1:56 PM 69.1 °F - 66.9 °F 93% 29.81 in - SW 24.2 mph 38.0 mph N/A Rain Light Rain
2:22 PM 69.1 °F - 66.9 °F 93% 29.77 in - SSW 27.6 mph 41.4 mph N/A Rain Light Rain
2:30 PM 69.1 °F - 66.0 °F 90% 29.76 in - SSW 25.3 mph 38.0 mph N/A Rain Light Rain
2:56 PM 69.1 °F - 66.0 °F 90% 29.78 in - SW 21.9 mph 38.0 mph N/A Rain Light Rain
3:56 PM 69.1 °F - 64.9 °F 87% 29.79 in - SW 17.3 mph 29.9 mph N/A   Mostly Cloudy
4:35 PM 66.9 °F - 64.9 °F 93% 29.78 in - SW 15.0 mph - N/A   Scattered Clouds
4:56 PM 66.9 °F - 64.0 °F 90% 29.81 in - SW 12.7 mph - N/A   Partly Cloudy
5:40 PM 64.0 °F - 63.0 °F 96% 29.82 in - SW 13.8 mph - N/A   Mostly Cloudy
5:56 PM 63.0 °F - 62.1 °F 97% 29.84 in - West 10.4 mph - N/A   Mostly Cloudy
6:42 PM 61.0 °F - 59.0 °F 93% 29.86 in - West 12.7 mph - N/A   Mostly Cloudy
6:56 PM 59.0 °F - 57.0 °F 93% 29.88 in - West 11.5 mph - N/A   Mostly Cloudy
7:56 PM 55.0 °F - 52.0 °F 89% 29.91 in - WNW 10.4 mph - N/A   Clear
8:56 PM 54.0 °F - 50.0 °F 86% 29.93 in - West 10.4 mph - N/A   Partly Cloudy
9:56 PM 53.1 °F - 48.9 °F 86% 29.96 in - WNW 10.4 mph - N/A   Clear
10:56 PM 52.0 °F - 48.0 °F 86% 29.98 in - WNW 8.1 mph - N/A   Clear
11:56 PM 53.1 °F - 46.9 °F 80% 30.02 in - NW 11.5 mph - N/A   Clear